Regional Weather Roundup
Issued by NWS

Home | Current Version | Previous Version | Graphics & Text | Print | Product List | Glossary On
Versions: 1 2 3 4 5 6 7 8 9 10 11 12 13 14 15 16 17 18 19 20 21 22 23 24 25 26 27 28 29 30 31 32 33 34 35 36 37 38 39 40 41 42 43 44 45 46 47 48 49 50
000
ASUS43 KIND 032059
RWRIN

WEATHER ROUNDUP FOR INDIANA
NATIONAL WEATHER SERVICE INDIANAPOLIS IN
500 PM EDT FRI JUL 03 2015

NOTE: "FAIR" INDICATES FEW OR NO CLOUDS BELOW 12,000 FEET WITH NO
SIGNIFICANT WEATHER AND/OR OBSTRUCTIONS TO VISIBILITY.

* - STATION DOES NOT REPORT WEATHER SUCH AS PRECIPITATION OR FOG.

+ - STATION NOT QUALITY CONTROLLED BY THE NATIONAL WEATHER SERVICE.
    USE DATA WITH CAUTION...ESPECIALLY DEWPOINT AND RELATIVE
    HUMIDITY OBSERVATIONS.

INZ001>003-010>013-019-020-032200-
NORTHWEST INDIANA

CITY           SKY/WX    TMP DP  RH WIND       PRES   REMARKS
GARY /AIRPORT/ PTSUNNY   72  59  64 N9        29.95F
MONTICELLO +   CLOUDY    73  63  71 CALM      29.91F
RENSSELAER +   PTSUNNY   73  59  60 CALM      29.93S

$$

LMZ046-743>745-032200-
SOUTHERN LAKE MICHIGAN

STATION/POSITION TIME  TEMP    WIND        PRES    WAVE
                       AIR SEA DIR/SP/G            HT
                 (UTC) (F)     (DEG/KT/KT) (MB)    (FT)
BURNS HARBOR     2000   64      30/  9/ 10 1014.6F
MICHIGAN CITY    2000   63     360/  9/ 11   N/A
5NW MICH CITY    2000   64 64   20/  6/  8   N/A     1

$$

INZ004-005-014>016-021>024-032200-
NORTH CENTRAL INDIANA

CITY           SKY/WX    TMP DP  RH WIND       PRES   REMARKS
ELKHART        MOSUNNY   75  54  46 N6        29.94F
GOSHEN         MOSUNNY   76  56  49 E8        29.93F
SOUTH BEND     MOSUNNY   76  55  48 CALM      29.93F

$$

INZ006>009-017-018-025>027-032200-
NORTHEAST INDIANA

CITY           SKY/WX    TMP DP  RH WIND       PRES   REMARKS
ANGOLA *+        N/A     75  55  50 VRB5      29.94S
FORT WAYNE     PTSUNNY   75  59  57 E7        29.93F

$$

INZ028-029-035-036-043>045-051>053-032200-
WEST CENTRAL INDIANA

CITY           SKY/WX    TMP DP  RH WIND       PRES   REMARKS
CRAWFORDSVL +  PTSUNNY   72  59  64 N7        29.91S
GREENCASTLE +  CLOUDY    72  61  68 NE10      29.90S HAZE
LAFAYETTE      PTSUNNY   74  62  66 NE8       29.91S
TERRE HAUTE    CLOUDY    76  66  71 NE9       29.88S

$$

INZ030>032-037>040-046>048-054>057-064-065-032200-
CENTRAL INDIANA

CITY           SKY/WX    TMP DP  RH WIND       PRES   REMARKS
COLUMBUS       CLOUDY    70  64  83 N10       29.89
FRANKFORT +    PTSUNNY   74  64  71 NE8       29.93F
GREENWOOD *+   CLOUDY    70  63  78 SE6       29.90S
INDIANAPOLIS   CLOUDY    74  62  66 N12       29.87F
-EAGLE CREEK   CLOUDY    73  62  68 NE8       29.89S
KOKOMO *+      CLOUDY    72  63  73 E6        29.92S
MT COMFORT *+  PTSUNNY   73  55  53 E7        29.90S
SHELBYVILLE    LGT RAIN  70  66  87 E7        29.89S

$$

INZ033-034-041-042-049-050-058-059-032200-
EAST CENTRAL INDIANA

CITY           SKY/WX    TMP DP  RH WIND       PRES   REMARKS
MUNCIE         PTSUNNY   75  62  64 NE10      29.90S

$$

INZ060-061-067>069-081>083-085>088-032200-
SOUTHWEST INDIANA

CITY           SKY/WX    TMP DP  RH WIND       PRES   REMARKS
EVANSVILLE     PTSUNNY   81  70  69 NE6       29.84F HAZE
HUNTINGBURG *+ PTSUNNY   72  68  88 NE6       29.85F

$$

INZ062-063-066-070>080-084-089>092-032200-
SOUTH CENTRAL AND SOUTHEAST INDIANA

CITY           SKY/WX    TMP DP  RH WIND       PRES   REMARKS
BLOOMINGTON    CLOUDY    73  65  75 NE8       29.88F
MADISON *+     PTSUNNY   75  68  78 NW3       29.87F
SEYMOUR +      CLOUDY    73  66  78 N13       29.86F

$$




USA.gov is the U.S. government's official web portal to all federal, state and local government web resources and services.